• In Netherlands
  • List of Countries
  • For 7 days
  • Water Temperature
  • Satellite Maps
  • Weather Map
  • Weather Widgets
  • user-avatar
    Login

    Hourly Weather Madinat 'Isa

    Today, 25 June, Sunday

    Time Temperature Precipitation Wind Pressure Humidity
    00:00 +35°C° 0 mm 4 mps 749 mmHg 44%
    01:00 +35°C° 0 mm 4 mps 749 mmHg 46%
    02:00 +35°C° 0 mm 4 mps 749 mmHg 48%
    03:00 +35°C° 0 mm 5 mps 748 mmHg 50%
    04:00 +35°C° 0 mm 6 mps 749 mmHg 49%
    05:00 +35°C° 0 mm 6 mps 749 mmHg 49%
    06:00 +35°C° 0 mm 7 mps 749 mmHg 48%
    07:00 +38°C° 0 mm 7 mps 749 mmHg 41%
    08:00 +40°C° 0 mm 8 mps 749 mmHg 34%
    09:00 +41°C° 0 mm 8 mps 749 mmHg 27%
    10:00 +43°C° 0 mm 9 mps 749 mmHg 25%
    11:00 +43°C° 0 mm 9 mps 749 mmHg 23%
    12:00 +44°C° 0 mm 9 mps 749 mmHg 21%
    13:00 +44°C° 0 mm 9 mps 749 mmHg 22%
    14:00 +43°C° 0 mm 9 mps 749 mmHg 22%
    15:00 +43°C° 0 mm 8 mps 748 mmHg 23%
    16:00 +41°C° 0 mm 8 mps 748 mmHg 24%
    17:00 +41°C° 0 mm 7 mps 748 mmHg 26%
    18:00 +40°C° 0 mm 7 mps 748 mmHg 27%
    19:00 +39°C° 0 mm 6 mps 748 mmHg 30%
    20:00 +37°C° 0 mm 5 mps 748 mmHg 33%
    21:00 +37°C° 0 mm 4 mps 749 mmHg 36%
    22:00 +36°C° 0 mm 4 mps 749 mmHg 36%
    23:00 +36°C° 0 mm 3 mps 748 mmHg 36%

    Tomorrow, 26 June, Monday

    Time Temperature Precipitation Wind Pressure Humidity
    00:00 +35°C° 0 mm 3 mps 748 mmHg 36%
    01:00 +35°C° 0 mm 3 mps 748 mmHg 34%
    02:00 +35°C° 0 mm 3 mps 748 mmHg 32%
    03:00 +35°C° 0 mm 4 mps 748 mmHg 30%
    04:00 +36°C° 0 mm 4 mps 748 mmHg 29%
    05:00 +36°C° 0 mm 5 mps 749 mmHg 27%
    06:00 +36°C° 0 mm 5 mps 749 mmHg 25%
    07:00 +39°C° 0 mm 6 mps 749 mmHg 25%
    08:00 +41°C° 0 mm 6 mps 749 mmHg 24%
    09:00 +43°C° 0 mm 7 mps 750 mmHg 24%
    10:00 +44°C° 0 mm 7 mps 750 mmHg 22%
    11:00 +45°C° 0 mm 7 mps 750 mmHg 21%
    12:00 +46°C° 0 mm 7 mps 750 mmHg 19%
    13:00 +46°C° 0 mm 7 mps 749 mmHg 20%
    14:00 +45°C° 0 mm 7 mps 749 mmHg 20%
    15:00 +45°C° 0 mm 6 mps 749 mmHg 20%
    16:00 +44°C° 0 mm 6 mps 749 mmHg 23%
    17:00 +42°C° 0 mm 6 mps 749 mmHg 27%
    18:00 +41°C° 0 mm 5 mps 749 mmHg 30%
    19:00 +40°C° 0 mm 5 mps 749 mmHg 32%
    20:00 +38°C° 0 mm 4 mps 749 mmHg 33%
    21:00 +38°C° 0 mm 4 mps 749 mmHg 35%
    22:00 +37°C° 0 mm 4 mps 749 mmHg 33%
    23:00 +37°C° 0 mm 3 mps 749 mmHg 31%

    Day after tomorrow, 27 June, Tuesday

    Time Temperature Precipitation Wind Pressure Humidity
    00:00 +37°C° 0 mm 3 mps 749 mmHg 28%
    01:00 +37°C° 0 mm 4 mps 748 mmHg 27%
    02:00 +39°C° 0 mm 5 mps 748 mmHg 25%
    03:00 +39°C° 0 mm 5 mps 748 mmHg 23%
    04:00 +39°C° 0 mm 6 mps 748 mmHg 23%
    05:00 +39°C° 0 mm 6 mps 749 mmHg 23%
    06:00 +39°C° 0 mm 6 mps 749 mmHg 23%
    07:00 +41°C° 0 mm 6 mps 749 mmHg 20%
    08:00 +44°C° 0 mm 6 mps 749 mmHg 17%
    09:00 +45°C° 0 mm 5 mps 750 mmHg 14%
    10:00 +46°C° 0 mm 5 mps 750 mmHg 13%
    11:00 +47°C° 0 mm 5 mps 749 mmHg 12%
    12:00 +48°C° 0 mm 5 mps 749 mmHg 11%
    13:00 +48°C° 0 mm 5 mps 749 mmHg 12%
    14:00 +48°C° 0 mm 6 mps 748 mmHg 12%
    15:00 +48°C° 0 mm 6 mps 748 mmHg 13%
    16:00 +47°C° 0 mm 6 mps 748 mmHg 15%
    17:00 +46°C° 0 mm 6 mps 748 mmHg 17%
    18:00 +43°C° 0 mm 5 mps 747 mmHg 19%
    19:00 +43°C° 0 mm 5 mps 748 mmHg 21%
    20:00 +42°C° 0 mm 5 mps 748 mmHg 23%
    21:00 +41°C° 0 mm 4 mps 748 mmHg 25%
    22:00 +41°C° 0 mm 4 mps 748 mmHg 24%
    23:00 +41°C° 0 mm 5 mps 748 mmHg 23%

    28 June, Wednesday

    Time Temperature Precipitation Wind Pressure Humidity
    00:00 +41°C° 0 mm 5 mps 747 mmHg 22%
    01:00 +40°C° 0 mm 5 mps 747 mmHg 22%
    02:00 +40°C° 0 mm 6 mps 747 mmHg 22%
    03:00 +40°C° 0 mm 6 mps 747 mmHg 22%
    04:00 +40°C° 0 mm 6 mps 747 mmHg 22%
    05:00 +40°C° 0 mm 6 mps 747 mmHg 22%
    06:00 +40°C° 0 mm 5 mps 747 mmHg 23%
    07:00 +42°C° 0 mm 6 mps 748 mmHg 20%
    08:00 +45°C° 0 mm 6 mps 748 mmHg 17%
    09:00 +47°C° 0 mm 6 mps 748 mmHg 14%
    10:00 +48°C° 0 mm 6 mps 748 mmHg 14%
    11:00 +48°C° 0 mm 6 mps 748 mmHg 14%
    12:00 +49°C° 0 mm 6 mps 747 mmHg 15%
    13:00 +48°C° 0 mm 6 mps 747 mmHg 16%
    14:00 +47°C° 0 mm 5 mps 746 mmHg 18%
    15:00 +47°C° 0 mm 5 mps 746 mmHg 19%
    16:00 +46°C° 0 mm 5 mps 746 mmHg 22%
    17:00 +44°C° 0 mm 4 mps 746 mmHg 24%
    18:00 +42°C° 0 mm 4 mps 746 mmHg 26%
    19:00 +40°C° 0 mm 3 mps 746 mmHg 28%
    20:00 +39°C° 0 mm 2 mps 746 mmHg 29%
    21:00 +37°C° 0 mm 1 mps 746 mmHg 30%
    22:00 +37°C° 0 mm 1 mps 746 mmHg 30%
    23:00 +38°C° 0 mm 2 mps 746 mmHg 30%

    29 June, Thursday

    Time Temperature Precipitation Wind Pressure Humidity
    00:00 +37°C° 0 mm 2 mps 746 mmHg 30%
    01:00 +37°C° 0 mm 2 mps 745 mmHg 34%
    02:00 +35°C° 0 mm 1 mps 745 mmHg 37%
    03:00 +32°C° 0 mm 0 mps 745 mmHg 41%
    04:00 +35°C° 0 mm 1 mps 745 mmHg 37%
    05:00 +35°C° 0 mm 1 mps 746 mmHg 34%
    06:00 +36°C° 0 mm 1 mps 746 mmHg 31%
    07:00 +39°C° 0 mm 1 mps 746 mmHg 28%
    08:00 +40°C° 0 mm 1 mps 746 mmHg 25%
    09:00 +42°C° 0 mm 1 mps 747 mmHg 22%
    10:00 +43°C° 0 mm 2 mps 746 mmHg 20%
    11:00 +45°C° 0 mm 3 mps 746 mmHg 18%
    12:00 +47°C° 0 mm 4 mps 746 mmHg 17%
    13:00 +45°C° 0 mm 4 mps 746 mmHg 18%
    14:00 +45°C° 0 mm 4 mps 745 mmHg 19%
    15:00 +45°C° 0 mm 4 mps 745 mmHg 21%
    16:00 +44°C° 0 mm 3 mps 745 mmHg 23%
    17:00 +43°C° 0 mm 3 mps 745 mmHg 25%
    18:00 +41°C° 0 mm 2 mps 745 mmHg 27%
    19:00 +40°C° 0 mm 2 mps 745 mmHg 27%
    20:00 +39°C° 0 mm 2 mps 745 mmHg 28%
    21:00 +38°C° 0 mm 2 mps 746 mmHg 29%
    22:00 +38°C° 0 mm 3 mps 745 mmHg 32%
    23:00 +38°C° 0 mm 3 mps 745 mmHg 35%

    30 June, Friday

    Time Temperature Precipitation Wind Pressure Humidity
    00:00 +37°C° 0 mm 4 mps 745 mmHg 38%
    01:00 +37°C° 0 mm 4 mps 745 mmHg 40%
    02:00 +36°C° 0 mm 3 mps 745 mmHg 42%
    03:00 +36°C° 0 mm 2 mps 744 mmHg 44%
    04:00 +36°C° 0 mm 2 mps 745 mmHg 43%
    05:00 +35°C° 0 mm 1 mps 745 mmHg 41%
    06:00 +35°C° 0 mm 1 mps 745 mmHg 39%
    07:00 +37°C° 0 mm 1 mps 746 mmHg 35%
    08:00 +39°C° 0 mm 1 mps 746 mmHg 32%
    09:00 +41°C° 0 mm 1 mps 746 mmHg 28%
    10:00 +42°C° 0 mm 1 mps 746 mmHg 26%
    11:00 +42°C° 0 mm 1 mps 745 mmHg 23%
    12:00 +43°C° 0 mm 2 mps 745 mmHg 21%
    13:00 +45°C° 0 mm 2 mps 745 mmHg 20%
    14:00 +45°C° 0 mm 3 mps 744 mmHg 19%
    15:00 +46°C° 0 mm 3 mps 744 mmHg 17%
    16:00 +45°C° 0 mm 4 mps 744 mmHg 20%
    17:00 +44°C° 0 mm 4 mps 744 mmHg 23%
    18:00 +43°C° 0 mm 4 mps 744 mmHg 26%
    19:00 +42°C° 0 mm 4 mps 744 mmHg 27%
    20:00 +42°C° 0 mm 4 mps 744 mmHg 29%
    21:00 +40°C° 0 mm 3 mps 745 mmHg 30%
    22:00 +39°C° 0 mm 3 mps 744 mmHg 31%
    23:00 +39°C° 0 mm 3 mps 744 mmHg 31%
    Show more